    Orbital elements:
    2024 CP4                                                 Earth MOID = 0.0140 AU
    Epoch 2023 Sept. 13.0 TT = JDT 2460200.5                Veres                   
    M 300.27029              (2000.0)            P               Q                  
    n   0.31947588     Peri.   59.84093     -0.98799648     +0.14997919             
    a   2.1192263      Node   128.75921     -0.15295928     -0.91632393             
    e   0.5777895      Incl.    2.71985     -0.02159674     -0.37129059             
    P   3.09           H   25.36          G   0.15           U   7                  
    Residuals in seconds of arc
    240130 G96  0.1-  0.2-    240213 033  0.2-  0.0     240213 I93  0.1-  0.9+
    240130 G96  0.0   0.2+    240213 K74  0.1-  0.1+    240213 G15  0.1+  0.1-
    240213 I41  0.3+  0.2+    240213 K74  0.2-  0.0     240213 I93  0.1-  0.6+
    240213 I41  0.4+  0.6-    240213 K74  0.1-  0.3-    240213 G15  0.7-  0.5-
    240213 I41  0.1+  0.2+    240213 J57  0.3-  0.3+    240213 I93  0.1+  0.1+
    240213 I41  0.2-  0.4+    240213 J57  0.5-  0.6+    240213 G00  0.2+  1.1+
    240213 I41 (3.0+  0.7-)   240213 J57  0.2-  0.6+    240213 130  0.3+  0.1-
    240213 I41 (1.6+  1.7-)   240213 958  0.4-  0.6+    240213 G15  0.3+  0.5-
    240213 K78  0.1-  1.2-    240213 958  0.3-  0.2+    240213 G00  0.2+  0.6+
    240213 K78  0.1-  0.4-    240213 106  0.1-  0.0     240213 G00  0.1+  0.7+
    240213 L01  0.7-  0.5-    240213 203  0.3+  0.2-    240213 G00  0.4-  0.4+
    240213 L01  0.5-  0.1-    240213 106  0.1-  0.6+    240213 G00  0.1-  0.6+
    240213 L01  0.5-  0.1-    240213 958  0.3+  1.0-    240213 130  0.4+  0.4-
    240213 K78  0.1-  1.2-    240213 106  0.2-  0.4-    240213 G00  0.6+  0.3-
    240213 L01  0.6-  0.2-    240213 G02  0.0   0.1-    240213 C95  0.4+  0.1+
    240213 L01  0.5-  0.3-    240213 203  0.1+  0.4-    240213 C95  0.7+  0.2+
    240213 K19  0.1-  2.0+    240213 G02  0.1+  0.4+    240213 C95  0.1+  0.3+
    240213 K19  0.4-  1.0+    240213 106  0.1-  0.6+    240213 104  0.3+  0.1+
    240213 595  0.9-  0.3-    240213 203  0.0   0.2-    240213 104  0.3+  0.2+
    240213 K19  0.2-  0.0     240213 K62  0.0   0.2-    240213 104  0.5+  0.0
    240213 595  0.7-  0.7-    240213 K62  0.2+  0.0     240214 Q06  0.3-  1.3+
    240213 595  0.4-  0.7-    240213 K62  0.0   0.3-    240214 Q06  0.5-  1.1+
    240213 033  0.2-  0.0     240213 K62  0.1-  0.3-    240214 Q06  0.1-  1.2+
    240213 033  0.3-  0.0     240213 130  0.3+  0.1-
    
    Ephemeris:
    2024 CP4                 a,e,i = 2.12, 0.58, 3                   q = 0.8948
    Date    TT    R. A. (2000) Decl.     Delta      r    Elong.  Phase     V
    2024 01 15    07 58 27.8 +17 10 06   0.2331  1.2159   174.6     4.4    23.0
    ...
    2024 01 30    07 55 32.0 +20 26 03   0.1177  1.1002   167.7    11.0    21.6
    ...
    2024 02 07    07 54 36.1 +26 45 20   0.06272 1.0443   157.4    21.3    20.5
    ...
    2024 02 13    07 59 12.7 +48 39 22   0.02517 1.0063   139.0    40.0    19.0
    2024 02 14    08 04 21.6 +59 43 32   0.02008 1.0004   129.9    49.2    18.7
    2024 02 15    08 28 16.5 +76 58 51   0.01619 0.9946   115.2    64.0    18.7
    ...
    2024 02 21    19 47 13.5 +10 00 10   0.03596 0.9624    42.1   136.5    24.5
    ...
    2024 02 29    19 52 05.3 -04 28 54   0.08821 0.9280    43.0   133.3    26.0
    ...
    2024 03 15    20 04 53.1 -09 41 45   0.1912  0.8955    54.0   116.1    26.1
    
    M. P. C. Staff               (C) Copyright 2024 MPC           M.P.E.C. 2024-C165
    


    Read MPEC 2024-C164 Read MPEC 2024-C166


    MPEC number:

    Enter an MPEC number in one of the following forms:

    • 1997-B01 (the full form)
    • J97B01 (the packed version of the full form)
    • B01 (the abbreviated form)